Regional Weather Roundup
Issued by NWS State College, PA

Home | Current Version | Previous Version | Graphics & Text | Print | Product List | Glossary On
Versions: 1 2 3 4 5 6 7 8 9 10 11 12 13 14 15 16 17 18 19 20 21 22 23 24 25 26 27 28 29 30 31 32 33 34 35 36 37 38 39 40 41 42 43 44 45 46 47 48 49 50
000
ASUS41 KCTP 041110
RWRCTP

REGIONAL WEATHER ROUNDUP
NATIONAL WEATHER SERVICE STATE COLLEGE PA
700 AM EDT FRI SEP 04 2015

Note: "fair" indicates few or no clouds below 12,000 feet with no
significant weather and/or obstructions to visibility.

* = STATION THAT DOES NOT REPORT PRECIPITATION /E.G. RAIN...SNOW...ETC/
    THUNDER OR FOG.

PAZ002>004-007>009-013>016-020>023-029>032-041200-
WESTERN PENNSYLVANIA

CITY           SKY/WX    TMP DP  RH WIND       PRES   REMARKS
ERIE           PTCLDY    70  67  90 CALM      30.03R FOG
MEADVILLE      FOG       66  63  90 SW6       30.06R VSB 1/4
FRANKLIN*      CLOUDY    64  63  94 CALM      30.09R VSB<1/4
NEW CASTLE     FOG       64  64 100 CALM      30.07R VSB 1
BEAVER COUNTY    N/A     64  64 100 CALM      30.06  FOG
BUTLER*          N/A     64  63  94 CALM      30.09R VSB 1/2
PITTSBURGH INT MOCLDY    68  65  90 W3        30.06R FOG
PITTSBURGH     MOCLDY    69  63  81 CALM      30.05R HAZE
INDIANA*       PTCLDY    66  64  94 CALM      30.10R FOG
LATROBE        CLEAR     64  64 100 CALM      30.07  FOG
WASHINGTON CO* MOCLDY    64  64 100 NW3       30.08R
$$

PAZ004>006-010>012-017>019-024>028-033>037-041-042-045-046-049>053-041200-
CENTRAL PENNSYLVANIA

CITY           SKY/WX    TMP DP  RH WIND       PRES   REMARKS
BRADFORD       FOG       63  62  97 E3        30.10R VSB<1/4
DUBOIS         FOG       63  60  90 CALM      30.08R VSB 1/2
CLEARFIELD     PTCLDY    62  60  93 CALM      30.08R FOG
JOHNSTOWN      CLEAR     65  62  90 CALM      30.10R FOG
ALTOONA        FOG       64  62  93 CALM      30.07R VSB 1/2
STATE COLLEGE  PTCLDY    64  63  94 CALM      30.06R
WILLIAMSPORT   MOCLDY    68  65  90 CALM      30.03R FOG
SELINSGROVE    PTCLDY    65  63  93 CALM      30.02R FOG
FT INDIANTOWN  CLEAR     69  66  89 VRB1      30.00R
CAPITAL CITY   CLEAR     69  66  90 SW5       30.00R FOG
HARRISBURG     CLEAR     73  69  87 N5        29.99R FOG
YORK           CLEAR     64  63  96 CALM      29.99R FOG
$$

PAZ038>040-043-044-047-048-054-055-060>062-067>071-041200-
EASTERN PENNSYLVANIA

CITY           SKY/WX    TMP DP  RH WIND       PRES   REMARKS
SCRANTON       CLEAR     67  64  90 E5        30.05R FOG
MOUNT POCONO   CLEAR     68  64  87 NE6       30.08R
ALLENTOWN      CLEAR     72  66  81 NE8       30.00R
QUAKERTOWN*    SUNNY     68  66  94 N3        30.01R
READING        CLEAR     73  66  78 N6        29.98R
LANCASTER      CLEAR     70  65  84 NE3       29.99R HAZE
COATESVILLE    SUNNY     72  68  88 NE3       30.00R
POTTSTOWN      CLEAR     67  67 100 CALM      30.00R FOG
BLUE BELL        N/A     68  66  94 CALM      29.98R
DOYLESTOWN     CLEAR     69  66  90 NE5       29.99R
WILLOW GROVE   NOT AVBL
NORTH PHILA    CLEAR     74  65  73 NE6       29.99R HAZE
PHILADELPHIA   PTCLDY    77  68  73 NE7       29.97R
$$



USA.gov is the U.S. government's official web portal to all federal, state and local government web resources and services.